This is the latest recevied weather packets stored in our database for station/object SR4DIG-13. If no packets are shown the sender has not sent any weather packets the latest 10 day(s).
| Time | Temp. | Humidity | Pressure | Rain* | Wind** | Luminosity | Snow |
|---|---|---|---|---|---|---|---|
| 1778061072 | 22.22° C | 54% | 1005.5 hPa | 2.29 mm | - | - | - |
| 1778060721 | 22.78° C | 53% | 1005.5 hPa | 2.29 mm | - | - | - |
| 1778060420 | 22.78° C | 53% | 1005.6 hPa | 2.29 mm | - | - | - |
| 1778060119 | 22.78° C | 54% | 1005.6 hPa | 2.29 mm | - | - | - |
| 1778059818 | 21.11° C | 57% | 1005.5 hPa | 2.29 mm | - | - | - |
| 1778059191 | 21.11° C | 58% | 1005.7 hPa | 2.29 mm | - | - | - |
| 1778058890 | 21.11° C | 57% | 1005.7 hPa | 2.29 mm | - | - | - |
| 1778058589 | 21.11° C | 58% | 1005.8 hPa | 2.29 mm | - | - | - |
| 1778058288 | 20° C | 60% | 1005.8 hPa | 2.29 mm | - | - | - |
| 1778057988 | 20° C | 60% | 1005.8 hPa | 2.29 mm | - | - | - |
| 1778057687 | 20° C | 61% | 1005.7 hPa | 2.29 mm | - | - | - |
| 1778057386 | 20° C | 60% | 1005.8 hPa | 2.29 mm | - | - | - |
| 1778057085 | 19.44° C | 64% | 1005.9 hPa | 2.29 mm | - | - | - |
| 1778056784 | 18.89° C | 64% | 1005.9 hPa | 2.29 mm | - | - | - |
| 1778056484 | 18.89° C | 64% | 1005.9 hPa | 2.29 mm | - | - | - |
| 1778056183 | 18.33° C | 64% | 1006 hPa | 2.29 mm | - | - | - |
| 1778055881 | 18.33° C | 66% | 1005.9 hPa | 2.29 mm | - | - | - |
| 1778055580 | 18.33° C | 66% | 1005.9 hPa | 2.29 mm | - | - | - |
| 1778055280 | 17.78° C | 66% | 1005.9 hPa | 2.29 mm | - | - | - |
| 1778054979 | 16.67° C | 69% | 1005.9 hPa | 2.29 mm | - | - | - |
| 1778054340 | 16.67° C | 69% | 1006.1 hPa | 2.29 mm | - | - | - |
| 1778054039 | 16.67° C | 69% | 1006.2 hPa | 2.29 mm | - | - | - |
| 1778053738 | 16.11° C | 72% | 1006.3 hPa | 2.29 mm | - | - | - |
| 1778053437 | 15.56° C | 73% | 1006.1 hPa | 2.29 mm | - | - | - |
| 1778053137 | 15.56° C | 73% | 1006.1 hPa | 2.29 mm | - | - | - |
* Rain since midnight (hover to see other rain measurements)
** Current wind speed in m/s (hover to see current wind gust speed)